OpenBCM V1.08-5-g2f4a (Linux)

Packet Radio Mailbox

IZ3LSV

[San Dona' di P. JN]

 Login: GUEST





  
I0OJJ  > KEPS     26.11.25 01:26l 308 Lines 14709 Bytes #159 (0) @ AMSAT
BID : ORB25330.1
Read: GUEST
Subj: 2Line Orbital Elements 25330.AMSAT
Path: IZ3LSV<IK6IHL<IK7NXU<HB9ON<DK0WUE<PI8ZTM<CX2SA<EA2RCF<I0OJJ
Sent: 251126/0021z @:I0OJJ.ITA.EU [Rome] obcm1.08-11-2-gbfe9
From: I0OJJ @ I0OJJ.ITA.EU (Gustavo)
To:   KEPS @ AMSAT
X-Info: This message was generated automatically


QST de W1STR

AMSAT Orbital Elements for Amateur Satellites in TLE Format
From Orbital Analysis Office
New England Sci-Tech STEM Education Center
Natick MA November 26, 2025
To all radio amateurs


These element sets describe the orbits of various satellites 
in use by the amateur radio community. For details see:
www.amsat.org/keplerian-elements-formats/

A daily update of element sets is available at:
www.amsat.org/tle/daily-bulletin.txt
or without bulletin text:
www.amsat.org/tle/dailytle.txt


AO-07
1 07530U 74089B   25329.76302808 -.00000039  00000-0  45344-4 0  9995
2 07530 101.9974 335.8521 0012271 158.4692  15.0553 12.53693657335022
UO-11
1 14781U 84021B   25329.73698244  .00001964  00000-0  20895-3 0  9997
2 14781  97.7794 293.0329 0008825 128.9025 231.2981 14.90056742226828
AO-27
1 22825U 93061C   25329.72661233  .00000169  00000-0  81646-4 0  9994
2 22825  98.7167  31.9517 0007973 344.8322  15.2621 14.30867556677908
FO-29
1 24278U 96046B   25329.61981931 -.00000025  00000-0  13331-4 0  9990
2 24278  98.5473 201.0509 0348827 264.4961  91.6304 13.53261283445631
GO-32
1 25397U 98043D   25329.70730778  .00000115  00000-0  70011-4 0  9990
2 25397  98.9910 312.5276 0002353  85.0565 275.0881 14.24369909422367
ISS
1 25544U 98067A   25329.44789911  .00013664  00000-0  25508-3 0  9997
2 25544  51.6313 228.0726 0003851 166.4062 193.7031 15.49072731540170
NO-44
1 26931U 01043C   25329.62278414  .00000248  00000-0  12348-3 0  9999
2 26931  67.0520  50.7431 0007330 270.8459  89.1803 14.31840861261308
SO-50
1 27607U 02058C   25329.80437912  .00002174  00000-0  27802-3 0  9998
2 27607  64.5546  37.9373 0071318 299.7332  59.6690 14.82289657234300
CO-55
1 27844U 03031E   25329.79878307  .00000441  00000-0  21042-3 0  9993
2 27844  98.6770 335.9202 0010553  59.6421 300.5800 14.24157915162722
CO-57
1 27848U 03031J   25329.54621404  .00000375  00000-0  18431-3 0  9998
2 27848  98.6799 335.5468 0010606  76.7539 283.4822 14.23469125162402
RS-22
1 27939U 03042A   25329.87708560  .00001652  00000-0  26600-3 0  9992
2 27939  98.3367 143.6298 0011118 187.9686 308.6347 14.72897659185618
CO-58
1 28895U 05043F   25329.37799226  .00002474  00000-0  40366-3 0  9999
2 28895  98.2718 116.1644 0015200 129.6665 230.5885 14.71796286 71768
CO-65
1 32785U 08021C   25329.83858675  .00007330  00000-0  49673-3 0  9992
2 32785  97.8072 302.6932 0009860  11.9815 348.1644 15.06733067954548
CO-66
1 32791U 08021J   25329.77591117  .00022008  00000-0  89812-3 0  9995
2 32791  97.7443 314.3493 0002289 352.9260   7.1943 15.24434976956215
RS-30
1 32953U 08025A   25329.81009559  .00000030  00000-0  14340-3 0  9993
2 32953  82.5001 121.9525 0019541  37.7004 322.5441 12.43171287794429
SRMSAT
1 37841U 11058D   25329.36516646  .00000459  00000-0  10558-3 0  9996
2 37841  19.9708 213.1120 0011867 121.7176  34.0563 14.11503025728984
ZACUBE-1
1 39417U 13066B   25329.83615292  .00007368  00000-0  60509-3 0  9994
2 39417  97.8045 286.3581 0040852 202.4666 157.4769 14.98830220650240
Delfi-N3xt
1 39428U 13066N   25329.76940970  .00008941  00000-0  84595-3 0  9991
2 39428  97.8325 245.7776 0079968 160.8955 199.5293 14.91459096644261
GOMX-1
1 39430U 13066Q   25329.86769275  .00002736  00000-0  42221-3 0  9998
2 39430  97.6606 178.0482 0131101  10.7894 349.6076 14.68467298640067
LO-74
1 39440U 13066AA  25329.83678701  .00007108  00000-0  68825-3 0  9995
2 39440  97.8686 273.5352 0059814 342.7888  17.1301 14.91693800646651
AO-73
1 39444U 13066AE  25329.84212676  .00010216  00000-0  70101-3 0  9999
2 39444  97.8062 292.9204 0039201 171.5182 188.6716 15.05565170649029
DTUSAT-2
1 40030U 14033W   25329.45766818  .00009647  00000-0  57598-3 0  9997
2 40030  98.0748 309.9579 0007379 196.5906 163.5082 15.11325312621872
EO-80
1 40032U 14033Y   25329.80019294  .00010345  00000-0  61579-3 0  9998
2 40032  98.0633 309.7373 0009099 135.9798 224.2156 15.11400756621901
LILACSAT-2
1 40908U 15049K   25329.82487751  .00018791  00000-0  41333-3 0  9996
2 40908  97.4932 354.6941 0006185 272.0003  88.0537 15.44016690564296
IO-86
1 40931U 15052B   25151.18580175  .00001241  00000-0  78118-4 0  9996
2 40931   6.0006  24.0987 0012733 338.8432  21.1169 14.78805930523159
Horyu-4
1 41340U 16012D   25329.67824456  .00056463  00000-0  10141-2 0  9998
2 41340  30.9945  66.9333 0006076  63.6467 296.4805 15.48570818538901
Lapan A3
1 41603U 16040E   25329.83709922  .00004846  00000-0  16216-3 0  9997
2 41603  97.1432 328.0109 0011734  33.5187 326.6795 15.31359422523674
CAS-2T
1 41847U 16066G   25329.78681190  .00001257  00000-0  18552-3 0  9993
2 41847  98.4053  42.6921 0344538  26.5230 335.3141 14.44074698475434
TechnoSat
1 42829U 17042E   25329.68857682  .00004337  00000-0  32353-3 0  9996
2 42829  97.4021 130.6353 0019620  69.4331 290.8997 15.03209846456114
AO-91
1 43017U 17073E   25329.59811670  .00014883  00000-0  70981-3 0  9993
2 43017  97.4954 196.1879 0161507 309.7848  48.9250 15.08312996434659
S-Net D
1 43186U 18014G   25329.70439625  .00007914  00000-0  43851-3 0  9998
2 43186  97.5480 230.9336 0009250  15.0455 345.1050 15.14038806427949
S-Net B
1 43187U 18014H   25329.71218367  .00007759  00000-0  43023-3 0  9996
2 43187  97.5484 230.9209 0009784   9.9782 350.1642 15.14015143427942
S-Net A
1 43188U 18014J   25329.70417566  .00007993  00000-0  44272-3 0  9995
2 43188  97.5495 231.0863 0009746  10.5009 349.6424 15.14044948427947
S-Net C
1 43189U 18014K   25329.78118637  .00007922  00000-0  43914-3 0  9995
2 43189  97.5512 231.2054 0010861   2.0052 358.1221 15.14011527426504
Ten-Koh
1 43677U 18084G   25329.45419029  .00004674  00000-0  36471-3 0  9998
2 43677  98.0714 148.3794 0009300  72.2868 287.9370 15.01644266385578
PO-101
1 43678U 18084H   25329.83462554  .00003057  00000-0  25544-3 0  9995
2 43678  98.1034 152.6191 0007288  87.4874 272.7182 14.99309985385735
QO-100
1 43700U 18090A   25329.79539847  .00000164  00000-0  00000+0 0  9995
2 43700   0.0179 279.5199 0002439   5.3431  92.3076  1.00271874 25632
MinXSS-2
1 43758U 18099A   25329.72863328  .00030464  00000-0  94477-3 0  9995
2 43758  97.4817  36.8769 0008802 277.4433  82.5809 15.33322686382815
AO-95
1 43770U 18099N   25329.69446963  .00015401  00000-0  68983-3 0  9994
2 43770  97.4696  26.1089 0009310 352.2352   7.8738 15.21305953382229
SNUSat 2
1 43782U 18099AA  25329.71818109  .00011597  00000-0  57547-3 0  9991
2 43782  97.4375  21.4201 0009695 289.5095  70.5091 15.17823574382129
SnugLite
1 43784U 18099AC  25329.68591278  .00015963  00000-0  70769-3 0  9996
2 43784  97.4187  21.3762 0001714 296.6142  63.4918 15.21685377382311
ITASat 1
1 43786U 18099AE  25329.73322044  .00009775  00000-0  51545-3 0  9992
2 43786  97.4343  20.4020 0013032 348.0191  12.0729 15.15695496382053
EAGLET 1
1 43790U 18099AJ  25329.61905211  .00006858  00000-0  41525-3 0  9993
2 43790  97.4544  19.5976 0010815 335.7848  24.2872 15.10868139381579
ESEO
1 43792U 18099AL  25329.70981615  .00002248  00000-0  16952-3 0  9992
2 43792  97.4271  10.5890 0010387 315.0108  45.0275 15.03390411381223
JO-97
1 43803U 18099AX  25329.83710470  .00020543  00000-0  79828-3 0  9997
2 43803  97.4444  27.7158 0005272 271.3377  88.7257 15.26074503382539
Suomi 100
1 43804U 18099AY  25329.70415483  .00016501  00000-0  70962-3 0  9999
2 43804  97.4501  26.3033 0009733 278.0678  81.9453 15.22677119382390
ISAT
1 43879U 18111D   25329.72301185  .00045673  00000-0  11372-2 0  9992
2 43879  97.5899 248.7647 0005929 348.1780  11.9325 15.40101087379629
UWE-4
1 43880U 18111E   25329.73625341  .00031454  00000-0  97706-3 0  9996
2 43880  97.5843 245.8061 0009826 350.0474  10.0572 15.33255566379471
Sparrow
1 43881U 18111F   25329.60174910  .00051127  00000-0  11876-2 0  9996
2 43881  97.6082 252.2923 0006832  27.5340 332.6267 15.42168649379726
Prox-1
1 44339U 19036A   25329.50404318  .00018204  00000-0  20737-2 0  9994
2 44339  23.9976  28.8608 0006734 196.3156 163.7126 14.84540086343101
Taurus 1
1 44530U 19059C   25329.81013502  .00009817  00000-0  16908-2 0  9992
2 44530  98.6230 117.7367 0009056 226.2780 133.7674 14.68737369328755
Duchifat 3
1 44854U 19089C   25329.24677714  .00590008  00000-0  18523-2 0  9994
2 44854  36.9301 343.3029 0009723 162.9665 197.1433 15.88993289329340
TO-108
1 44881U 19093C   25329.86734495  .00001310  00000-0  15555-3 0  9993
2 44881  97.7777  41.8751 0014551  40.4389 319.7905 14.86046132321219
FloripaSat 1
1 44885U 19093G   25329.84561370  .00008427  00000-0  66475-3 0  9998
2 44885  97.8056  57.9615 0011859  28.9991 331.1889 15.00934157322118
RS-44
1 44909U 19096E   25329.81424713  .00000027  00000-0  69790-4 0  9996
2 44909  82.5189 114.8557 0216543 259.8069  97.8548 12.79745569276339
SALSAT
1 46495U 20068K   25329.74623338  .00010646  00000-0  41767-3 0  9996
2 46495  97.8781 316.1085 0008890 301.7161  58.3209 15.25905689284290
CSS (TIANHE-1)
1 48274U 21035A   25329.79914999  .00027762  00000-0  35869-3 0  9992
2 48274  41.4666 119.4772 0010763 270.0332  89.9273 15.58262718261382
TUBIN
1 48900U 21059X   25329.81525689  .00394486  64336-4  10040-2 0  9990
2 48900  97.6646 155.7370 0002407 316.3463  43.7622 15.95412190246618
CUTE
1 49263U 21088D   25329.75376203  .00058424  00000-0  79903-3 0  9991
2 49263  97.4363  51.8597 0005060 341.1570  18.9497 15.57236659230658
TeikyoSat 4
1 49396U 21102B   25329.62177338  .00002802  00000-0  18325-3 0  9999
2 49396  97.3919   1.8636 0010493 274.4264  85.5766 15.08529404222024
Z-Sat
1 49399U 21102E   25329.88329345  .00005760  00000-0  30068-3 0  9991
2 49399  97.3602   6.3344 0015949 232.9174 127.0602 15.16199045222611
